Grants-Milan, NM

7:13 PM MDT on May 21, 2018 (GMT -0600)
Grants-Milan Municipal

Weather History for KGNT - March, 2012

Change the Weather History Date:

Sunday, March 25, 2012

  Actual Average Record
Temperature  
Mean Temperature 48 °F -  
Max Temperature 73 °F 63 °F 74 °F (1956)
Min Temperature 23 °F 25 °F 11 °F (1969)
Degree Days  
Heating Degree Days 17    
Moisture  
Dew Point 15 °F    
Average Humidity 28    
Maximum Humidity 60    
Minimum Humidity 10    
Precipitation  
Precipitation 0.00 in - - ()
Sea Level Pressure  
Sea Level Pressure 29.93 in    
Wind  
Wind Speed 7 mph (SSW)    
Max Wind Speed 25 mph    
Max Gust Speed 32 mph    
Averages and records for this station are not official NWS values.
T = Trace of Precipitation, MM = Missing Value Source: NWS Daily Summary

Daily Weather History Graph

Daily Weather History Graph

Search for Another Location

Airport or City:

Astronomy

Mar. 25, 2012 Rise Set
Actual Time 7:07 AM MDT 7:27 PM MDT
Civil Twilight 6:42 AM MDT 7:53 PM MDT
Nautical Twilight 6:12 AM MDT 8:23 PM MDT
Astronomical Twilight 5:42 AM MDT 8:53 PM MDT
Moon 8:29 AM MDT (3/25) 10:36 PM MDT (3/25)
Length of Visible Light 13h 11m
Length of Day
12h 20m
Waxing Crescent, 9% of the Moon is Illuminated
Mar 25
Waxing Crescent
Mar 30
First Quarter
Apr 6
Full
Apr 13
Last Quarter
Apr 21
New

Hourly Weather History & Observations

Time (MDT) Temp. Windchill Dew Point Humidity Pressure Visibility Wind Dir Wind Speed Gust Speed Precip Events Conditions
12:53 AM 37.9 °F - 16.0 °F 41% 30.01 in - Calm Calm - N/A   Unknown
1:53 AM 37.0 °F - 17.1 °F 44% 30.00 in - Calm Calm - N/A   Unknown
2:53 AM 32.0 °F 27.5 °F 15.1 °F 50% 30.00 in - NNW 4.6 mph - N/A   Unknown
3:53 AM 33.1 °F 27.7 °F 14.0 °F 46% 29.99 in - NW 5.8 mph - N/A   Unknown
4:53 AM 28.0 °F 20.0 °F 12.0 °F 51% 30.01 in - North 8.1 mph - N/A   Unknown
5:53 AM 28.9 °F 21.9 °F 15.1 °F 56% 30.01 in - NW 6.9 mph - N/A   Unknown
6:53 AM 23.0 °F 17.0 °F 10.9 °F 60% 30.06 in - NNW 4.6 mph - N/A   Unknown
7:53 AM 30.9 °F 24.3 °F 15.1 °F 52% 30.06 in - NW 6.9 mph - N/A   Unknown
8:53 AM 43.0 °F 41.3 °F 18.0 °F 37% 30.02 in - NNW 3.5 mph - N/A   Unknown
9:53 AM 52.0 °F - 19.0 °F 27% 29.98 in - Calm Calm - N/A   Unknown
10:53 AM 62.1 °F - 18.0 °F 18% 29.95 in - SE 13.8 mph 18.4 mph N/A   Unknown
11:53 AM 70.0 °F - 14.0 °F 12% 29.91 in - SE 16.1 mph 24.2 mph N/A   Unknown
12:53 PM 72.0 °F - 15.1 °F 11% 29.90 in - SE 23.0 mph 29.9 mph N/A   Unknown
1:53 PM 72.0 °F - 15.1 °F 11% 29.86 in - ESE 17.3 mph 28.8 mph N/A   Unknown
2:53 PM 73.9 °F - 14.0 °F 10% 29.86 in - South 19.6 mph 28.8 mph N/A   Unknown
3:53 PM 73.9 °F - 15.1 °F 11% 29.83 in - SSW 17.3 mph 25.3 mph N/A   Unknown
4:53 PM 73.0 °F - 16.0 °F 11% 29.83 in - South 25.3 mph 32.2 mph N/A   Unknown
5:53 PM 70.0 °F - 12.9 °F 11% 29.85 in - SSW 21.9 mph 29.9 mph N/A   Unknown
6:53 PM 66.9 °F - 10.9 °F 11% 29.90 in - SW 9.2 mph - N/A   Unknown
7:53 PM 60.1 °F - 12.0 °F 15% 29.91 in - SSW 4.6 mph - N/A   Unknown
8:53 PM 60.1 °F - 10.9 °F 14% 29.88 in - SSW 8.1 mph - N/A   Unknown
9:53 PM 53.1 °F - 12.0 °F 20% 29.89 in - South 6.9 mph - N/A   Unknown
10:53 PM 52.0 °F - 14.0 °F 22% 29.87 in - SSE 5.8 mph - N/A   Unknown
11:53 PM 51.1 °F - 16.0 °F 25% 29.83 in - SSE 6.9 mph - N/A   Unknown